Regional Weather Roundup
Issued by NWS Green Bay, WI

Home | Current Version | Previous Version | Text Only | Print | Product List | Glossary On
Versions: 1 2 3 4 5 6 7 8 9 10 11 12 13 14 15 16 17 18 19 20 21 22 23 24 25 26 27 28 29 30 31 32 33 34 35 36 37 38 39 40 41 42 43 44 45 46 47 48 49 50
000
ASUS43 KGRB 261810
RWRGRB

NORTH-CENTRAL AND NORTHEAST WISCONSIN REGIONAL WEATHER ROUNDUP
NATIONAL WEATHER SERVICE GREEN BAY WI
1200 PM CST WED NOV 26 2014

WIZ005-009-010>012-018-019-261900-
NORTH CENTRAL WISCONSIN

CITY           SKY/WX    TMP DP  RH WIND       PRES   REMARKS
IRONWOOD       CLOUDY    19  18  93 W8        30.11F WCI   9
MANITOWISH WTR LGT SNOW  20  17  88 W3        30.10F
ARBOR VITAE    LGT SNOW  22  17  83 NW3       30.10S
EAGLE RIVER    LGT SNOW  20  15  79 CALM      30.09F
LAND O LAKES   LGT SNOW  22  17  82 W3        30.10S
RHINELANDER    LGT SNOW  21  16  81 W5        30.10S
PHILLIPS       LGT SNOW  21  16  81 CALM      30.11F
ANTIGO         CLOUDY    18  17  96 CALM      30.09F
TOMAHAWK       CLOUDY    22  17  81 CALM      30.12S
MERRILL        CLOUDY    23  17  78 W3        30.12S
$$

WIZ013-073-261900-
NORTHEAST WISCONSIN

CITY           SKY/WX    TMP DP  RH WIND       PRES   REMARKS
IRON MOUNTAIN  CLOUDY    16  14  92 CALM      30.11F
MARINETTE      CLOUDY    25  16  68 CALM      30.16F
OCONTO         CLOUDY    22  18  85 CALM      30.16F
$$

WIZ017-030-035>037-045-261900-
CENTRAL WISCONSIN

CITY           SKY/WX    TMP DP  RH WIND       PRES   REMARKS
MEDFORD        CLOUDY    23  15  72 CALM      30.10F
WAUSAU         CLOUDY    22  18  85 CALM      30.11F
MOSINEE        NOT AVBL
MARSHFIELD     CLOUDY    22  16  78 S3        30.12F
WISC RAPIDS      N/A     23  15  71 CALM      30.15F
STEVENS POINT  PTSUNNY   19  17  94 CALM      30.13F
WAUPACA        CLOUDY    22  20  90 CALM      30.16S FOG
SHAWANO        CLOUDY    22  20  90 CALM      30.16S
CLINTONVILLE   CLOUDY    21  19  93 CALM      30.15F
$$

WIZ038-039-048-051-261900-
FOX VALLEY

CITY           SKY/WX    TMP DP  RH WIND       PRES   REMARKS
NWS GREEN BAY  CLOUDY    23  17  78 N7        30.16F
APPLETON       CLOUDY    23  19  86 VRB5      30.14F
OSHKOSH        CLOUDY    23  18  81 MISG      30.14F
FOND DU LAC    CLOUDY    23  18  81 VRB3      30.14F
$$

WIZ022-050-052-261900-
EAST CENTRAL WISCONSIN

CITY           SKY/WX    TMP DP  RH WIND       PRES   REMARKS
STURGEON BAY   MOSUNNY   25  14  63 CALM      30.15F
MANITOWOC      CLOUDY    27  22  81 NW7       30.15F
SHEBOYGAN      PTSUNNY   25  19  78 N7        30.14F
$$

LMZ563-521-522-541>543-261900-
LAKESHORE

STATION/POSITION TIME  TEMP    WIND        PRES    VSBY  WAVE
                       AIR SEA DIR/SP/G                  HT/PER
                 (UTC) (F)     (DEG/KT/KT) (MB)    (MI)  (FT/S)
SHEBOYGAN LKSHOR 1800   26 35  330/  5/  6 1022.0F
KEWAUNEE LKSHORE 1800   24     300/  6/  9 1020.0F
TWO RIVERS CG    1700   24 39              1022.2      6   0
NORTHPORT PIER   1800   27     300/  4/  8 1021.7R
N MID LAKE BUOY  1800   28 42  320/ 10/ 14 1021.9F         1
SISTER BAY LKSHO 1800             CALM       N/A
CHAMBERS ISLAND  1800   24     250/  4/  5 1021.7S
MENOMINEE LKSHOR 1800   24     290/  3/  4 1021.8F
$$


USA.gov is the U.S. government's official web portal to all federal, state and local government web resources and services.